Flag for Germany Weather past 2 weeks in Düsseldorf, North Rhine-Westphalia, Germany

52 °F

Light rain. Partly sunny.

Feels Like: 45 °F
Forecast: 45 / 54 °F
Wind: 24 mph from Southwest

Location: Duesseldorf

Current Time: Nov 29, 2015 at 4:04:55 PM

Latest Report: Nov 29, 2015 at 3:20 PM

Visibility: N/A

Pressure: 29.77 "Hg

Humidity: 82%

Dew point: 46 °F

Location of DüsseldorfLocation

Historic Weather in Düsseldorf — Graph


Düsseldorf temperature yesterday

Maximum temperature yesterday: 45 °F (at 10:50 AM)
Minimum temperature yesterday: 37 °F (at 12:50 AM)
Average temperature yesterday: 42 °F

Past Weeks' High & Low Weather Summary

High61 °F (Nov 15, 11:50 AM)100% (Nov 14, 10:50 PM)30.27 "Hg (Nov 14, 10:50 PM)
Low32 °F (Nov 22, 7:20 AM)59% (Nov 18, 3:20 AM)29.39 "Hg (Nov 21, 7:20 AM)
Average46 °F83%29.87 "Hg
* Reported Nov 14 2:20 PM — Nov 29 2:50 PM, Düsseldorf, Weather by CustomWeather, © 2015

Note: Actual official high and low records may vary slightly from our data, if they occured in-between our weather recording intervals... More about our weather records


Düsseldorf weather history for previous 24 hours

Time TempWeatherWind HumidityBarometerVisibility
2:50 PM
Sun, Nov 29
52 °FLight rain. Broken clouds.24 mph88%29.77 "HgN/A
2:20 PM50 °FBroken clouds.22 mph94%29.77 "HgN/A
1:50 PM50 °FLight rain. Partly sunny.22 mph94%29.77 "Hg5 mi
1:20 PM50 °FLight rain. Partly sunny.18 mph88%29.80 "HgN/A
12:50 PM50 °FBroken clouds.18 mph88%29.80 "HgN/A
12:20 PM50 °FSprinkles. Partly sunny.22 mph88%29.83 "HgN/A
11:50 AM52 °FMostly cloudy.20 mph77%29.83 "HgN/A
11:20 AM52 °FMostly cloudy.20 mph77%29.83 "HgN/A
10:20 AM50 °FMore clouds than sun.20 mph82%29.80 "HgN/A
9:50 AM48 °FSprinkles. Broken clouds.22 mph87%29.80 "HgN/A
9:20 AM48 °FSprinkles. Broken clouds.20 mph87%29.80 "HgN/A
8:50 AM48 °FSprinkles. Partly sunny.21 mph87%29.80 "HgN/A
8:20 AM46 °FSprinkles. Mostly cloudy.17 mph93%29.80 "HgN/A
7:50 AM48 °FMostly cloudy.18 mph82%29.80 "HgN/A
7:20 AM48 °FMostly cloudy.20 mph82%29.80 "HgN/A
6:20 AM46 °FPartly cloudy.21 mph87%29.80 "HgN/A
5:20 AM46 °FPartly cloudy.21 mph87%29.77 "HgN/A
4:50 AM46 °FLight rain. Partly cloudy.20 mph87%29.77 "HgN/A
4:20 AM46 °FPartly cloudy.20 mph87%29.77 "HgN/A
3:50 AM45 °FPartly cloudy.20 mph93%29.77 "HgN/A
3:20 AM45 °FPartly cloudy.20 mph87%29.80 "HgN/A
2:50 AM45 °FPartly cloudy.23 mph87%29.80 "HgN/A
2:20 AM45 °FQuite cool.22 mph87%29.80 "HgN/A
1:50 AM45 °FLight rain. Partly cloudy.23 mph87%29.80 "HgN/A
1:20 AM45 °FLight rain. Passing clouds.24 mph87%29.80 "HgN/A
12:50 AM45 °FLight rain. Passing clouds.25 mph87%29.80 "HgN/A
12:20 AM45 °FLight rain. Passing clouds.25 mph81%29.83 "HgN/A
11:50 PM
Sat, Nov 28
45 °FLight rain. Passing clouds.24 mph81%29.83 "HgN/A
11:20 PM45 °FPassing clouds.24 mph76%29.83 "HgN/A
10:50 PM45 °FPartly cloudy.23 mph76%29.83 "HgN/A
10:20 PM45 °FPassing clouds.24 mph71%29.86 "HgN/A
9:20 PM45 °FPassing clouds.18 mph71%29.89 "HgN/A
8:50 PM45 °FPartly cloudy.21 mph71%29.89 "HgN/A
8:20 PM45 °FClear.21 mph71%29.92 "Hg10 mi
7:50 PM43 °FClear.18 mph76%29.92 "Hg10 mi
7:20 PM43 °FLight rain. Clear.16 mph71%29.92 "HgN/A
6:50 PM43 °FClear.14 mph71%29.95 "Hg10 mi
6:20 PM43 °FClear.13 mph66%29.95 "Hg10 mi
5:50 PM43 °FClear.14 mph71%29.95 "Hg10 mi
5:20 PM41 °FClear.15 mph76%29.98 "Hg10 mi
4:50 PM41 °FPartly cloudy.15 mph76%29.98 "HgN/A
4:20 PM43 °FScattered clouds.15 mph76%29.98 "HgN/A
Weather by CustomWeather, © 2015

See weather overviewHow to use our weather pages